When you browse on this site, cookies collect data to enhance your experience and personalize the content and advertising you see.
Visit our Privacy Policy to learn more. By continuing to use the site, you agree to this use of cookies and data.
  • In Austria
  • List of Countries
  • For 7 days
  • Water Temperature
  • Weather Map
  • News
  • Weather Widgets
  • user-avatar
    Login

    Hourly Weather Vishakhapatnam

    Today, 26 May, Tuesday

    Time Temperature Precipitation Wind Pressure Humidity
    00:00 +32°C° 0 mm 6 mps 755 mmHg 82%
    01:00 +32°C° 0 mm 6 mps 754 mmHg 83%
    02:00 +32°C° 0 mm 6 mps 754 mmHg 84%
    03:00 +30°C° 0 mm 5 mps 754 mmHg 85%
    04:00 +30°C° 0 mm 5 mps 754 mmHg 86%
    05:00 +30°C° 0 mm 5 mps 754 mmHg 86%
    06:00 +30°C° 0 mm 6 mps 754 mmHg 86%
    07:00 +32°C° 0 mm 6 mps 755 mmHg 77%
    08:00 +34°C° 0 mm 6 mps 755 mmHg 68%
    09:00 +36°C° 0 mm 7 mps 756 mmHg 59%
    10:00 +38°C° 0 mm 7 mps 756 mmHg 55%
    11:00 +39°C° 0 mm 7 mps 755 mmHg 51%
    12:00 +40°C° 0 mm 8 mps 755 mmHg 47%
    13:00 +40°C° 0 mm 8 mps 755 mmHg 49%
    14:00 +40°C° 0 mm 8 mps 754 mmHg 52%
    15:00 +39°C° 0 mm 9 mps 753 mmHg 55%
    16:00 +38°C° 0 mm 8 mps 753 mmHg 60%
    17:00 +37°C° 0 mm 8 mps 753 mmHg 66%
    18:00 +34°C° 0 mm 8 mps 752 mmHg 72%
    19:00 +34°C° 0 mm 8 mps 753 mmHg 74%
    20:00 +33°C° 0 mm 8 mps 754 mmHg 76%
    21:00 +33°C° 0 mm 8 mps 755 mmHg 77%
    22:00 +33°C° 0 mm 7 mps 754 mmHg 78%
    23:00 +32°C° 0 mm 7 mps 754 mmHg 79%

    Tomorrow, 27 May, Wednesday

    Time Temperature Precipitation Wind Pressure Humidity
    00:00 +32°C° 0 mm 7 mps 754 mmHg 80%
    01:00 +32°C° 0 mm 6 mps 754 mmHg 81%
    02:00 +32°C° 0 mm 6 mps 754 mmHg 81%
    03:00 +32°C° 0 mm 6 mps 753 mmHg 82%
    04:00 +30°C° 0 mm 6 mps 753 mmHg 83%
    05:00 +30°C° 0 mm 6 mps 753 mmHg 83%
    06:00 +30°C° 0 mm 7 mps 753 mmHg 84%
    07:00 +33°C° 0 mm 7 mps 754 mmHg 75%
    08:00 +34°C° 0 mm 7 mps 755 mmHg 65%
    09:00 +36°C° 0 mm 7 mps 755 mmHg 56%
    10:00 +38°C° 0 mm 8 mps 755 mmHg 52%
    11:00 +39°C° 0 mm 8 mps 754 mmHg 49%
    12:00 +42°C° 0 mm 9 mps 754 mmHg 45%
    13:00 +40°C° 0 mm 9 mps 753 mmHg 48%
    14:00 +40°C° 0 mm 10 mps 753 mmHg 51%
    15:00 +39°C° 0 mm 10 mps 752 mmHg 53%
    16:00 +38°C° 0 mm 10 mps 752 mmHg 57%
    17:00 +37°C° 0 mm 9 mps 751 mmHg 60%
    18:00 +35°C° 0 mm 9 mps 751 mmHg 64%
    19:00 +34°C° 0 mm 8 mps 752 mmHg 68%
    20:00 +34°C° 0 mm 7 mps 752 mmHg 73%
    21:00 +33°C° 0 mm 7 mps 753 mmHg 77%
    22:00 +33°C° 0 mm 7 mps 753 mmHg 78%
    23:00 +32°C° 0 mm 7 mps 753 mmHg 79%

    Day after tomorrow, 28 May, Thursday

    Time Temperature Precipitation Wind Pressure Humidity
    00:00 +32°C° 0 mm 7 mps 753 mmHg 79%
    01:00 +32°C° 0 mm 7 mps 753 mmHg 81%
    02:00 +32°C° 0 mm 7 mps 752 mmHg 82%
    03:00 +31°C° 0 mm 8 mps 752 mmHg 83%
    04:00 +32°C° 0 mm 8 mps 752 mmHg 81%
    05:00 +32°C° 0 mm 8 mps 752 mmHg 79%
    06:00 +32°C° 0 mm 9 mps 753 mmHg 77%
    07:00 +33°C° 0 mm 9 mps 753 mmHg 70%
    08:00 +35°C° 0 mm 9 mps 754 mmHg 64%
    09:00 +37°C° 0 mm 10 mps 754 mmHg 57%
    10:00 +39°C° 0 mm 9 mps 754 mmHg 50%
    11:00 +42°C° 0 mm 9 mps 753 mmHg 43%
    12:00 +44°C° 0 mm 8 mps 752 mmHg 35%
    13:00 +43°C° 0 mm 9 mps 752 mmHg 42%
    14:00 +42°C° 0 mm 10 mps 751 mmHg 48%
    15:00 +40°C° 0 mm 10 mps 750 mmHg 54%
    16:00 +39°C° 0 mm 9 mps 750 mmHg 61%
    17:00 +37°C° 0 mm 8 mps 750 mmHg 68%
    18:00 +35°C° 0 mm 8 mps 750 mmHg 75%
    19:00 +34°C° 0 mm 8 mps 751 mmHg 79%
    20:00 +33°C° 0 mm 8 mps 751 mmHg 83%
    21:00 +33°C° 0 mm 8 mps 752 mmHg 86%
    22:00 +33°C° 0 mm 7 mps 752 mmHg 87%
    23:00 +32°C° 0 mm 7 mps 752 mmHg 87%

    29 May, Friday

    Time Temperature Precipitation Wind Pressure Humidity
    00:00 +32°C° 0 mm 6 mps 752 mmHg 88%
    01:00 +33°C° 0 mm 7 mps 752 mmHg 85%
    02:00 +33°C° 0 mm 7 mps 752 mmHg 83%
    03:00 +33°C° 0 mm 8 mps 752 mmHg 80%
    04:00 +33°C° 0 mm 8 mps 752 mmHg 79%
    05:00 +33°C° 0 mm 8 mps 753 mmHg 78%
    06:00 +33°C° 0 mm 8 mps 753 mmHg 77%
    07:00 +34°C° 0 mm 8 mps 753 mmHg 71%
    08:00 +35°C° 0 mm 8 mps 754 mmHg 65%
    09:00 +38°C° 0 mm 8 mps 754 mmHg 59%
    10:00 +39°C° 0 mm 8 mps 754 mmHg 55%
    11:00 +40°C° 0 mm 8 mps 753 mmHg 50%
    12:00 +41°C° 0 mm 8 mps 753 mmHg 46%
    13:00 +41°C° 0 mm 8 mps 752 mmHg 50%
    14:00 +40°C° 0 mm 9 mps 752 mmHg 55%
    15:00 +39°C° 0 mm 9 mps 751 mmHg 59%
    16:00 +39°C° 0 mm 8 mps 751 mmHg 53%
    17:00 +38°C° 0 mm 8 mps 751 mmHg 48%
    18:00 +36°C° 0 mm 7 mps 751 mmHg 42%
    19:00 +35°C° 0.1 mm 7 mps 752 mmHg 50%
    20:00 +34°C° 0.1 mm 6 mps 752 mmHg 58%
    21:00 +34°C° 0.1 mm 6 mps 753 mmHg 65%
    22:00 +33°C° 0 mm 6 mps 753 mmHg 72%
    23:00 +33°C° 0 mm 6 mps 753 mmHg 79%

    30 May, Saturday

    Time Temperature Precipitation Wind Pressure Humidity
    00:00 +32°C° 0 mm 6 mps 753 mmHg 86%
    01:00 +32°C° 0 mm 6 mps 753 mmHg 86%
    02:00 +32°C° 0 mm 7 mps 753 mmHg 86%
    03:00 +32°C° 0 mm 7 mps 752 mmHg 86%
    04:00 +32°C° 0 mm 8 mps 753 mmHg 85%
    05:00 +32°C° 0 mm 8 mps 753 mmHg 84%
    06:00 +32°C° 0 mm 9 mps 753 mmHg 83%
    07:00 +33°C° 0 mm 9 mps 754 mmHg 76%
    08:00 +34°C° 0 mm 9 mps 754 mmHg 68%
    09:00 +35°C° 0 mm 9 mps 755 mmHg 61%
    10:00 +38°C° 0 mm 8 mps 755 mmHg 56%
    11:00 +39°C° 0 mm 7 mps 754 mmHg 52%
    12:00 +41°C° 0 mm 7 mps 754 mmHg 47%
    13:00 +41°C° 0 mm 7 mps 754 mmHg 47%
    14:00 +41°C° 0 mm 8 mps 753 mmHg 47%
    15:00 +41°C° 0 mm 8 mps 753 mmHg 47%
    16:00 +40°C° 0 mm 7 mps 753 mmHg 54%
    17:00 +38°C° 0 mm 7 mps 753 mmHg 61%
    18:00 +36°C° 0 mm 6 mps 753 mmHg 68%
    19:00 +35°C° 0 mm 7 mps 753 mmHg 73%
    20:00 +34°C° 0 mm 7 mps 754 mmHg 78%
    21:00 +33°C° 0 mm 8 mps 754 mmHg 83%
    22:00 +33°C° 0 mm 7 mps 755 mmHg 83%
    23:00 +33°C° 0 mm 6 mps 755 mmHg 84%

    31 May, Sunday

    Time Temperature Precipitation Wind Pressure Humidity
    00:00 +32°C° 0 mm 6 mps 755 mmHg 85%
    01:00 +32°C° 0 mm 7 mps 755 mmHg 86%
    02:00 +32°C° 0 mm 7 mps 754 mmHg 86%
    03:00 +32°C° 0 mm 8 mps 754 mmHg 86%
    04:00 +32°C° 0 mm 7 mps 754 mmHg 86%
    05:00 +32°C° 0 mm 7 mps 754 mmHg 85%
    06:00 +32°C° 0 mm 7 mps 755 mmHg 84%
    07:00 +32°C° 0 mm 7 mps 755 mmHg 79%
    08:00 +33°C° 0 mm 7 mps 756 mmHg 74%
    09:00 +34°C° 0 mm 7 mps 756 mmHg 69%
    10:00 +36°C° 0 mm 7 mps 756 mmHg 63%
    11:00 +39°C° 0 mm 8 mps 756 mmHg 57%
    12:00 +40°C° 0 mm 8 mps 756 mmHg 51%
    13:00 +40°C° 0 mm 9 mps 755 mmHg 52%
    14:00 +40°C° 0 mm 9 mps 754 mmHg 53%
    15:00 +40°C° 0 mm 10 mps 754 mmHg 54%
    16:00 +38°C° 0.7 mm 8 mps 754 mmHg 57%
    17:00 +35°C° 0.7 mm 6 mps 754 mmHg 59%
    18:00 +33°C° 0.7 mm 4 mps 755 mmHg 62%
    19:00 +33°C° 0.1 mm 4 mps 755 mmHg 64%
    20:00 +33°C° 0.1 mm 4 mps 755 mmHg 65%
    21:00 +32°C° 0.1 mm 4 mps 755 mmHg 66%
    22:00 +32°C° 0 mm 4 mps 755 mmHg 72%
    23:00 +32°C° 0 mm 5 mps 755 mmHg 77%
    Show more